STARLINK-1368, 45540

Orbit data source: Space-Track

STARLINK-1368, 45540 is a payload satellite owned by SpaceX/Seattle (US) in LEO that was launched on Wed, 22 Apr 2020 UTC via an FALCON 9 launch vehicle from the Air Force Eastern Test Range (AFETR). Payload-class satellites include a variety of spacecraft equipped with specific instruments for various scientific and technological missions. These include communications satellites like Starlink; space stations such as the ISS; scientific satellites like the Hubble; Earth observation satellites from companies like Planet Labs, Umbra, and HawkEye 360; GPS; miniature CubeSats for education and research; and military/defense satellites.

Loading next visibility...
Identifier
45540, 2020-025K
Orbit
LEO
Country
Flag of USUS
Related business
Manufacturer
SpaceX/Seattle
Mission
Partially operational Commercial Communications
Bus & Motor
STARLINK, Unknown motor
Mass
260 kg wet, ~248 kg dry
Launch date (UTC)
2020-04-22 (6 years ago)
Launch vehicle
FALCON 9
Launch site
Air Force Eastern Test Range (AFETR)
Object type
Payload
Rocket body
Debris
Shape & HBR
Box + 1 Pan, 10.1 m
Radar Cross Section
13.562 m², Large (>1 m²)

Expand to show TLE details & history
Last TLE update: 17 hours ago

TLE from 17 hours ago
0 STARLINK-1368
1 45540U 20025K   26170.18654800  .00046315  00000-0  12049-2 0  9992
2 45540  53.1562 347.2757 0002849 190.0767 170.0181 15.38476911340741
Epoch: 2026-06-19T04:28Z
TLE epoch observation values (Epoch: 2026-06-19T04:28:37.747Z)
Latitude
0.00002°
Longitude
12.6993°
Altitude
453.431 km
Speed
7.641 km/s
True Right ascension
23h 09m 06s
True Declination
0° 00' 00"
Sunlit
Object was in daylight at epoch
Visualization orbit readout
Latitude
Unknown
Longitude
Unknown
Altitude
Unknown
Speed
Unknown
Apparent Right ascension
Unknown
Apparent Declination
Unknown
Sunlit
N/A
Visualization observer readout
Local Sidereal Time
08:10:44
Azimuth
Unknown
Elevation
Unknown
Doppler factor
Unknown
Orbital elements
Apogee altitude
452.816 km
Perigee altitude
448.925 km
Semi-major axis
6,829.008 km
Eccentricity
0.00028
Inclination
53.1562°
RAAN
347.2757°
Arg. of periapsis
190.0767°
True anomaly
170.02376°
Mean anomaly
170.0181°
Eccentric anomaly
170.02093°
Mean motion
3.84598 °/min
Orbital period
93.6 mins
BSTAR
0.0012049
Loading maneuver chart data...
Computing Atmospheric mass density...
Loading historical data...
Loading historical data...
Loading historical data...
Loading historical data...
Loading historical data...
Loading historical data...
Loading historical data...

Documentation

Showing up to 5 results
|